Location: Bastelaar
(51.0950°N, 3.8602°E)
Time: 02:05:31
(UTC+00:00)

ARIANE 6 FM1 Upper Stage - Pass Details

Date: 25 January 2026
Orbit: 522 x 609 km, 62.0° (Epoch: 13 February)

Event Time Altitude Azimuth Distance (km) Brightness Sun altitude
Rises 19:11:23 0° 245° (WSW) 2,695 7.1 -26.1°
Reaches altitude 10° 19:13:40 10° 251° (WSW) 1,794 6.1 -26.5°
Enters shadow 19:16:53 41° 296° (WNW) 783 3.7 -27.0°
